Miscellaneous Local Product
Issued by NWS Hastings, NE

Home | Current Version | Previous Version | Text Only | Print | Product List | Glossary Off
Versions: 1 2 3 4 5 6 7 8 9 10 11 12 13 14 15 16 17 18 19 20 21 22 23 24 25 26 27 28 29 30 31 32 33 34 35 36 37 38 39 40 41 42 43 44 45 46 47 48 49 50

313
AXUS43 KGID 231702
MISGRI

GID CWA HOURLY WEATHER ROUNDUP
NATIONAL WEATHER SERVICE HASTINGS NE
1100 AM CST THU FEB 23 2017

NOTE: "FAIR" INDICATES FEW OR NO CLOUDS BELOW 12,000 FEET WITH NO
SIGNIFICANT WEATHER AND/OR OBSTRUCTIONS TO VISIBILITY.

...SOUTH CENTRAL NEBRASKA...

CITY           SKY/WX    TMP DP  RH WIND       PRES   REMARKS
GRAND ISLAND   CLOUDY    32  32 100 NE22G28   29.70F FOG     WCI  19
HASTINGS       CLOUDY    34  32  92 NE23G29   29.67F WCI  22
KEARNEY        CLOUDY    34  28  80 NE20G28   29.67F WCI  22
ORD            CLOUDY    31  27  85 NE17G24   29.72F WCI  19
YORK           CLOUDY    36  34  93 NE21G26   29.68F WCI  24
AURORA         CLOUDY    33  32  98 NE24G31   29.68F FOG     WCI  20
LEXINGTON      CLOUDY    32  31  96 NE17G28   29.67F FOG     WCI  21
HOLDREGE       CLOUDY    33  32  98 NE23      29.64F FOG     WCI  20
HEBRON         CLOUDY    40  34  79 NE21G26   29.64F WCI  30

...NEBRASKA PANHANDLE...

CITY           SKY/WX    TMP DP  RH WIND       PRES   REMARKS
CHADRON        FOG       25  22  88 NE18      29.79S VSB 1/4 WCI  11
ALLIANCE       HVY SNOW  24  21  88 NE23      29.69F VSB 1/4 WCI   9
SCOTTSBLUFF    HVY SNOW  26  22  84 NE18      29.70R VSB 1/4 WCI  13
SIDNEY         FRZ RAIN  27  24  89 NE22      29.63F FOG     WCI  13

...WESTERN AND NORTH CENTRAL NEBRASKA...

CITY           SKY/WX    TMP DP  RH WIND       PRES   REMARKS
VALENTINE      SNOW      26  22  84 NE16      29.82F VSB 1/4 WCI  14
AINSWORTH      SNOW      26  26  97 NE17      29.79F VSB 1/2 WCI  14
ONEILL         LGT SNOW  30  29  96 N15       29.81S VSB 1   WCI  19
BROKEN BOW     CLOUDY    30  28  92 NE17G28   29.69F WCI  18
IMPERIAL       CLOUDY    30  28  92 NE23      29.62F FOG     WCI  17
NORTH PLATTE   CLOUDY    30  25  81 NE20      29.68F WCI  17
MCCOOK         CLOUDY    32  31  96 NE20G28   29.62F FOG     WCI  20

...EASTERN NEBRASKA...

CITY           SKY/WX    TMP DP  RH WIND       PRES   REMARKS
NORFOLK        CLOUDY    33  29  85 NE16G24   29.76F WCI  23
SO SIOUX CITY  CLOUDY    37  30  75 NE13      29.80F WCI  29
TEKAMAH        CLOUDY    38  32  79 NE20      29.74F WCI  28
COLUMBUS       CLOUDY    34  30  86 NE18G28   29.72F WCI  23
ALBION         CLOUDY    33  31  91 NE18      29.74S WCI  22
OMAHA EPPLEY   CLOUDY    40  33  76 NE16G22   29.72F WCI  31
MILLARD        CLOUDY    40  35  81 NE8G20    29.70F WCI  35
LINCOLN        CLOUDY    40  33  76 NE22      29.70F WCI  30
NEBRASKA CITY  CLOUDY    39  36  88 NE18      29.67F WCI  29
BEATRICE       CLOUDY    39  36  86 NE16G23   29.65F WCI  31
FALLS CITY     CLOUDY    44  39  82 E16G25    29.65R

...NORTHERN KANSAS...

CITY           SKY/WX    TMP DP  RH WIND       PRES   REMARKS
GOODLAND       CLOUDY    33  33 100 E21       29.53F WCI  21
HILL CITY      CLOUDY    43  35  73 E18G26    29.58F
NORTON         CLOUDY    36  28  75 NE20G26   29.60F WCI  25
PHILLIPSBURG   CLOUDY    41  34  75 N17       29.61F
SMITH CENTER   CLOUDY    39  34  81 NE17G24   29.61F WCI  30
HAYS           SUNNY     51  37  58 NE17G25   29.54F
RUSSELL        SUNNY     51  37  58 E22       29.52F
CONCORDIA      PTSUNNY   46  37  71 NE20G29   29.58F
SALINA         SUNNY     60  41  49 E15G25    29.53F
TOPEKA         CLOUDY    53  40  61 E20       29.58F



USA.gov is the U.S. government's official web portal to all federal, state and local government web resources and services.